,,,PA_Meas_PMT16A,,PR_Meas_QMR101_102,,RH_Meas_QMH101,,SR_Meas_QMS101,,TA_Meas_QMH101,,GenWind,,GenWind,
date,time,status,PA,status,PR,status,RH,status,SR,status,TA,status,DirAvg,status,SpdAvg,
2010-11-23, 00:00:04,VALID,998.477,VALID,0,VALID,91.6928,VALID,0,VALID,22.3356,VALID,44,VALID,0.789453,
2010-11-23, 00:01:04,VALID,998.446,VALID,0,VALID,91.7233,VALID,0,VALID,22.3551,VALID,64,VALID,0.853125,
2010-11-23, 00:02:04,VALID,998.435,VALID,0,VALID,91.6394,VALID,0,VALID,22.4153,VALID,64,VALID,0.875391,
2010-11-23, 00:03:04,VALID,998.428,VALID,0,VALID,91.4105,VALID,0,VALID,22.4721,VALID,64,VALID,0.807813,
2010-11-23, 00:04:04,VALID,998.433,VALID,0,VALID,91.0137,VALID,0,VALID,22.5501,VALID,64,VALID,0.804297,
2010-11-23, 00:05:04,VALID,998.428,VALID,0,VALID,90.5407,VALID,0,VALID,22.6087,VALID,64,VALID,0.635547,
2010-11-23, 00:06:04,VALID,998.444,VALID,0,VALID,90.144,VALID,0,VALID,22.6672,VALID,64,VALID,0.803125,
2010-11-23, 00:07:04,VALID,998.427,VALID,0,VALID,89.9151,VALID,0,VALID,22.7062,VALID,64,VALID,0.707422,
2010-11-23, 00:08:04,VALID,998.435,VALID,0,VALID,89.8235,VALID,0,VALID,22.7257,VALID,64,VALID,0.604688,
2010-11-23, 00:09:04,VALID,998.427,VALID,0,VALID,89.8159,VALID,0,VALID,22.7452,VALID,64,VALID,0.408594,
2010-11-23, 00:10:04,VALID,998.43,VALID,0,VALID,89.854,VALID,0,VALID,22.7257,VALID,64,VALID,0.05625,
2010-11-23, 00:11:04,VALID,998.394,VALID,0,VALID,89.7625,VALID,0,VALID,22.7062,VALID,64,VALID,0,
2010-11-23, 00:12:04,VALID,998.44,VALID,0,VALID,89.732,VALID,0,VALID,22.6867,VALID,64,VALID,0,
2010-11-23, 00:13:04,VALID,998.43,VALID,0,VALID,89.7625,VALID,0,VALID,22.6867,VALID,64,VALID,0,
2010-11-23, 00:14:04,VALID,998.45,VALID,0,VALID,89.8159,VALID,0,VALID,22.6477,VALID,64,VALID,0,
2010-11-23, 00:15:04,VALID,998.422,VALID,0,VALID,89.8235,VALID,0,VALID,22.6477,VALID,64,VALID,0,
2010-11-23, 00:16:04,VALID,998.42,VALID,0,VALID,89.9914,VALID,0,VALID,22.6672,VALID,64,VALID,0,
2010-11-23, 00:17:04,VALID,998.448,VALID,0,VALID,90.3042,VALID,0,VALID,22.6477,VALID,64,VALID,0.585156,
2010-11-23, 00:18:04,VALID,998.48,VALID,0,VALID,90.4949,VALID,0,VALID,22.6087,VALID,64,VALID,0.415625,
2010-11-23, 00:19:04,VALID,998.447,VALID,0,VALID,90.7009,VALID,0,VALID,22.5909,VALID,64,VALID,0.391406,
2010-11-23, 00:20:04,VALID,998.464,VALID,0,VALID,90.8764,VALID,0,VALID,22.5519,VALID,64,VALID,0.613672,
2010-11-23, 00:21:04,VALID,998.44,VALID,0,VALID,91.0748,VALID,0,VALID,22.5111,VALID,64,VALID,0.507031,
2010-11-23, 00:22:04,VALID,998.436,VALID,0,VALID,91.2808,VALID,0,VALID,22.4916,VALID,64,VALID,0.382813,
2010-11-23, 00:23:04,VALID,998.44,VALID,0,VALID,91.4715,VALID,0,VALID,22.4721,VALID,64,VALID,0.49375,
2010-11-23, 00:24:04,VALID,998.433,VALID,0,VALID,91.6241,VALID,0,VALID,22.4526,VALID,64,VALID,0.291406,
2010-11-23, 00:25:04,VALID,998.421,VALID,0,VALID,91.7614,VALID,0,VALID,22.4526,VALID,64,VALID,0.404687,
2010-11-23, 00:26:04,VALID,998.386,VALID,0,VALID,91.8759,VALID,0,VALID,22.4331,VALID,64,VALID,0.552734,
2010-11-23, 00:27:04,VALID,998.393,VALID,0,VALID,91.9674,VALID,0,VALID,22.4136,VALID,50,VALID,0.663281,
2010-11-23, 00:28:04,VALID,998.374,VALID,0,VALID,92.0437,VALID,0,VALID,22.4331,VALID,18,VALID,0.513672,
2010-11-23, 00:29:04,VALID,998.367,VALID,0,VALID,92.1124,VALID,0,VALID,22.4136,VALID,18,VALID,0.583984,
2010-11-23, 00:30:04,VALID,998.352,VALID,0,VALID,92.1811,VALID,0,VALID,22.4331,VALID,18,VALID,0.518359,
2010-11-23, 00:31:04,VALID,998.347,VALID,0,VALID,92.2268,VALID,0,VALID,22.4331,VALID,18,VALID,0.321094,
2010-11-23, 00:32:04,VALID,998.348,VALID,0,VALID,92.2726,VALID,0,VALID,22.4331,VALID,18,VALID,0.319922,
2010-11-23, 00:33:04,VALID,998.339,VALID,0,VALID,92.3184,VALID,0,VALID,22.4331,VALID,18,VALID,0.389453,
2010-11-23, 00:34:04,VALID,998.343,VALID,0,VALID,92.3489,VALID,0,VALID,22.4331,VALID,18,VALID,0.267188,
2010-11-23, 00:35:04,VALID,998.306,VALID,0,VALID,92.3794,VALID,0,VALID,22.4526,VALID,18,VALID,0.303906,
2010-11-23, 00:36:04,VALID,998.338,VALID,0,VALID,92.41,VALID,0,VALID,22.4738,VALID,18,VALID,0.549219,
2010-11-23, 00:37:04,VALID,998.326,VALID,0,VALID,92.4481,VALID,0,VALID,22.4738,VALID,18,VALID,0.613281,
2010-11-23, 00:38:04,VALID,998.316,VALID,0,VALID,92.4634,VALID,0,VALID,22.4526,VALID,18,VALID,0.441797,
2010-11-23, 00:39:04,VALID,998.293,VALID,0,VALID,92.4786,VALID,0,VALID,22.4543,VALID,18,VALID,0,
2010-11-23, 00:40:04,VALID,998.295,VALID,0,VALID,92.5244,VALID,0,VALID,22.4526,VALID,18,VALID,0,
2010-11-23, 00:41:04,VALID,998.289,VALID,0,VALID,92.5397,VALID,0,VALID,22.4331,VALID,18,VALID,0,
2010-11-23, 00:42:04,VALID,998.275,VALID,0,VALID,92.5778,VALID,0,VALID,22.4331,VALID,18,VALID,0,
2010-11-23, 00:43:04,VALID,998.25,VALID,0,VALID,92.6083,VALID,0,VALID,22.4348,VALID,18,VALID,0,
2010-11-23, 00:44:04,VALID,998.276,VALID,0,VALID,92.616,VALID,0,VALID,22.4136,VALID,18,VALID,0,
2010-11-23, 00:45:04,VALID,998.218,VALID,0,VALID,92.6236,VALID,0,VALID,22.4331,VALID,18,VALID,0,
2010-11-23, 00:46:04,VALID,998.206,VALID,0,VALID,92.6388,VALID,0,VALID,22.4331,VALID,18,VALID,0,
2010-11-23, 00:47:04,VALID,998.202,VALID,0,VALID,92.677,VALID,0,VALID,22.4348,VALID,18,VALID,0,
2010-11-23, 00:48:04,VALID,998.169,VALID,0,VALID,92.6846,VALID,0,VALID,22.4136,VALID,18,VALID,0,
2010-11-23, 00:49:04,VALID,998.153,VALID,0,VALID,92.6846,VALID,0,VALID,22.4331,VALID,18,VALID,0,
2010-11-23, 00:50:04,VALID,998.147,VALID,0,VALID,92.677,VALID,0,VALID,22.4543,VALID,18,VALID,0,
2010-11-23, 00:51:04,VALID,998.133,VALID,0,VALID,92.7151,VALID,0,VALID,22.4331,VALID,18,VALID,0,
2010-11-23, 00:52:04,VALID,998.115,VALID,0,VALID,92.7228,VALID,0,VALID,22.4526,VALID,18,VALID,0,
2010-11-23, 00:53:04,VALID,998.09,VALID,0,VALID,92.7533,VALID,0,VALID,22.4526,VALID,18,VALID,0.230469,
2010-11-23, 00:54:04,VALID,998.094,VALID,0,VALID,92.7685,VALID,0,VALID,22.4721,VALID,18,VALID,0.649219,
2010-11-23, 00:55:04,VALID,998.082,VALID,0,VALID,92.7991,VALID,0,VALID,22.4721,VALID,23,VALID,0.656641,
2010-11-23, 00:56:04,VALID,998.097,VALID,0,VALID,92.8067,VALID,0,VALID,22.4721,VALID,23,VALID,0.482031,
2010-11-23, 00:57:04,VALID,998.076,VALID,0,VALID,92.8296,VALID,0,VALID,22.4933,VALID,23,VALID,0,
2010-11-23, 00:58:04,VALID,998.054,VALID,0,VALID,92.8448,VALID,0,VALID,22.4933,VALID,23,VALID,0,
2010-11-23, 00:59:04,VALID,998.068,VALID,0,VALID,92.8448,VALID,0,VALID,22.4916,VALID,23,VALID,0,
2010-11-23, 01:00:04,VALID,998.053,VALID,0,VALID,92.8754,VALID,0,VALID,22.4721,VALID,23,VALID,0,
2010-11-23, 01:01:04,VALID,998.034,VALID,0,VALID,92.8754,VALID,0,VALID,22.4526,VALID,23,VALID,0,
2010-11-23, 01:02:04,VALID,998.018,VALID,0,VALID,92.8906,VALID,0,VALID,22.4721,VALID,23,VALID,0,
2010-11-23, 01:03:04,VALID,997.995,VALID,0,VALID,92.8983,VALID,0,VALID,22.4738,VALID,23,VALID,0,
2010-11-23, 01:04:04,VALID,997.964,VALID,0,VALID,92.9288,VALID,0,VALID,22.4933,VALID,23,VALID,0,
2010-11-23, 01:05:04,VALID,997.963,VALID,0,VALID,92.8983,VALID,0,VALID,22.4933,VALID,23,VALID,0,
2010-11-23, 01:06:04,VALID,997.959,VALID,0,VALID,92.9135,VALID,0,VALID,22.4526,VALID,23,VALID,0,
2010-11-23, 01:07:04,VALID,997.899,VALID,0,VALID,92.9211,VALID,0,VALID,22.4526,VALID,23,VALID,0,
2010-11-23, 01:08:04,VALID,997.926,VALID,0,VALID,92.9364,VALID,0,VALID,22.4526,VALID,23,VALID,0,
2010-11-23, 01:09:04,VALID,997.884,VALID,0,VALID,92.944,VALID,0,VALID,22.4526,VALID,23,VALID,0,
2010-11-23, 01:10:04,VALID,997.858,VALID,0,VALID,92.9593,VALID,0,VALID,22.4526,VALID,67,VALID,0,
2010-11-23, 01:11:04,VALID,997.876,VALID,0,VALID,92.9669,VALID,0,VALID,22.4738,VALID,67,VALID,0,
2010-11-23, 01:12:04,VALID,997.837,VALID,0,VALID,93.0051,VALID,0,VALID,22.4738,VALID,67,VALID,0,
2010-11-23, 01:13:04,VALID,997.833,VALID,0,VALID,92.9822,VALID,0,VALID,22.4526,VALID,67,VALID,0,
2010-11-23, 01:14:04,VALID,997.821,VALID,0,VALID,92.9745,VALID,0,VALID,22.4526,VALID,67,VALID,0,
2010-11-23, 01:15:04,VALID,997.808,VALID,0,VALID,92.9898,VALID,0,VALID,22.4526,VALID,67,VALID,0,
2010-11-23, 01:16:04,VALID,997.778,VALID,0,VALID,92.9974,VALID,0,VALID,22.4738,VALID,67,VALID,0,
2010-11-23, 01:17:04,VALID,997.774,VALID,0,VALID,93.0127,VALID,0,VALID,22.4526,VALID,67,VALID,0,
2010-11-23, 01:18:04,VALID,997.76,VALID,0,VALID,93.0127,VALID,0,VALID,22.4721,VALID,67,VALID,0,
2010-11-23, 01:19:04,VALID,997.776,VALID,0,VALID,93.0203,VALID,0,VALID,22.4933,VALID,67,VALID,0,
2010-11-23, 01:20:04,VALID,997.746,VALID,0,VALID,93.0508,VALID,0,VALID,22.4933,VALID,128,VALID,0,
2010-11-23, 01:21:04,VALID,997.731,VALID,0,VALID,93.0737,VALID,0,VALID,22.5128,VALID,160,VALID,0.930078,
2010-11-23, 01:22:04,VALID,997.712,VALID,0,VALID,93.0661,VALID,0,VALID,22.5501,VALID,133,VALID,0.821094,
2010-11-23, 01:23:04,VALID,997.68,VALID,0,VALID,93.0661,VALID,0,VALID,22.5696,VALID,117,VALID,0.857813,
2010-11-23, 01:24:04,VALID,997.661,VALID,0,VALID,93.0508,VALID,0,VALID,22.5892,VALID,107,VALID,0.780859,
2010-11-23, 01:25:04,VALID,997.618,VALID,0,VALID,93.0356,VALID,0,VALID,22.5892,VALID,93,VALID,0.813672,
2010-11-23, 01:26:04,VALID,997.628,VALID,0,VALID,93.0127,VALID,0,VALID,22.5892,VALID,93,VALID,0.631641,
2010-11-23, 01:27:04,VALID,997.612,VALID,0,VALID,92.9898,VALID,0,VALID,22.5892,VALID,93,VALID,0.252344,
2010-11-23, 01:28:04,VALID,997.648,VALID,0,VALID,92.9822,VALID,0,VALID,22.5696,VALID,162,VALID,0.669141,
2010-11-23, 01:29:04,VALID,997.636,VALID,0,VALID,92.9669,VALID,0,VALID,22.5892,VALID,182,VALID,1.09883,
2010-11-23, 01:30:04,VALID,997.608,VALID,0,VALID,92.9593,VALID,0,VALID,22.6282,VALID,183,VALID,1.53437,
2010-11-23, 01:31:04,VALID,997.602,VALID,0,VALID,92.9669,VALID,0,VALID,22.6477,VALID,188,VALID,1.19062,
2010-11-23, 01:32:04,VALID,997.586,VALID,0,VALID,92.9364,VALID,0,VALID,22.6477,VALID,185,VALID,0.74375,
2010-11-23, 01:33:04,VALID,997.546,VALID,0,VALID,92.8983,VALID,0,VALID,22.6477,VALID,166,VALID,0.715234,
2010-11-23, 01:34:04,VALID,997.535,VALID,0,VALID,92.8372,VALID,0,VALID,22.6672,VALID,163,VALID,0.691016,
2010-11-23, 01:35:04,VALID,997.532,VALID,0,VALID,92.7991,VALID,0,VALID,22.6477,VALID,164,VALID,0.432031,
2010-11-23, 01:36:04,VALID,997.539,VALID,0,VALID,92.7609,VALID,0,VALID,22.6672,VALID,164,VALID,0.445313,
2010-11-23, 01:37:04,VALID,997.549,VALID,0,VALID,92.6999,VALID,0,VALID,22.6477,VALID,164,VALID,0.564844,
2010-11-23, 01:38:04,VALID,997.496,VALID,0,VALID,92.6388,VALID,0,VALID,22.6672,VALID,164,VALID,0.566797,
2010-11-23, 01:39:04,VALID,997.499,VALID,0,VALID,92.5931,VALID,0,VALID,22.6655,VALID,196,VALID,0.508984,
2010-11-23, 01:40:04,VALID,997.473,VALID,0,VALID,92.5626,VALID,0,VALID,22.7257,VALID,202,VALID,0.456641,
2010-11-23, 01:41:04,VALID,997.461,VALID,0,VALID,92.532,VALID,0,VALID,22.7257,VALID,202,VALID,0.452344,
2010-11-23, 01:42:04,VALID,997.44,VALID,0,VALID,92.471,VALID,0,VALID,22.7257,VALID,202,VALID,0.285937,
2010-11-23, 01:43:04,VALID,997.441,VALID,0,VALID,92.3947,VALID,0,VALID,22.7452,VALID,202,VALID,0.478516,
2010-11-23, 01:44:04,VALID,997.435,VALID,0,VALID,92.3108,VALID,0,VALID,22.7452,VALID,176,VALID,0.948438,
2010-11-23, 01:45:04,VALID,997.453,VALID,0,VALID,92.2345,VALID,0,VALID,22.7647,VALID,169,VALID,1.09297,
2010-11-23, 01:46:04,VALID,997.471,VALID,0,VALID,92.1048,VALID,0,VALID,22.8232,VALID,168,VALID,0.895312,
2010-11-23, 01:47:04,VALID,997.469,VALID,0,VALID,91.998,VALID,0,VALID,22.8427,VALID,170,VALID,0.807422,
2010-11-23, 01:48:04,VALID,997.478,VALID,0,VALID,91.8835,VALID,0,VALID,22.8623,VALID,184,VALID,0.803125,
2010-11-23, 01:49:04,VALID,997.493,VALID,0,VALID,91.7767,VALID,0,VALID,22.9013,VALID,193,VALID,0.901953,
2010-11-23, 01:50:04,VALID,997.461,VALID,0,VALID,91.6394,VALID,0,VALID,22.9403,VALID,195,VALID,0.590234,
2010-11-23, 01:51:04,VALID,997.464,VALID,0,VALID,91.4944,VALID,0,VALID,22.9208,VALID,194,VALID,0.362109,
2010-11-23, 01:52:04,VALID,997.417,VALID,0,VALID,91.3647,VALID,0,VALID,22.9403,VALID,195,VALID,0.182031,
2010-11-23, 01:53:04,VALID,997.442,VALID,0,VALID,91.2503,VALID,0,VALID,22.9403,VALID,194,VALID,0.109375,
2010-11-23, 01:54:04,VALID,997.438,VALID,0,VALID,91.2045,VALID,0,VALID,22.9208,VALID,194,VALID,0.237891,
2010-11-23, 01:55:04,VALID,997.441,VALID,0,VALID,91.1968,VALID,0,VALID,22.9013,VALID,194,VALID,0.189844,
2010-11-23, 01:56:04,VALID,997.426,VALID,0,VALID,91.2655,VALID,0,VALID,22.8818,VALID,194,VALID,0.226172,
2010-11-23, 01:57:04,VALID,997.392,VALID,0,VALID,91.3418,VALID,0,VALID,22.8427,VALID,194,VALID,0,
2010-11-23, 01:58:04,VALID,997.387,VALID,0,VALID,91.4028,VALID,0,VALID,22.8427,VALID,194,VALID,0,
2010-11-23, 01:59:04,VALID,997.401,VALID,0,VALID,91.4639,VALID,0,VALID,22.8232,VALID,194,VALID,0.216406,
2010-11-23, 02:00:04,VALID,997.375,VALID,0,VALID,91.502,VALID,0,VALID,22.8037,VALID,183,VALID,0.444531,
2010-11-23, 02:01:04,VALID,997.365,VALID,0,VALID,91.502,VALID,0,VALID,22.7842,VALID,183,VALID,0.416797,
2010-11-23, 02:02:04,VALID,997.351,VALID,0,VALID,91.4639,VALID,0,VALID,22.7842,VALID,183,VALID,0.380859,
2010-11-23, 02:03:04,VALID,997.358,VALID,0,VALID,91.4028,VALID,0,VALID,22.7842,VALID,183,VALID,0.295703,
2010-11-23, 02:04:04,VALID,997.344,VALID,0,VALID,91.296,VALID,0,VALID,22.7842,VALID,183,VALID,0,
2010-11-23, 02:05:04,VALID,997.343,VALID,0,VALID,91.2121,VALID,0,VALID,22.7842,VALID,183,VALID,0,
2010-11-23, 02:06:04,VALID,997.347,VALID,0,VALID,91.174,VALID,0,VALID,22.7647,VALID,183,VALID,0,
2010-11-23, 02:07:04,VALID,997.355,VALID,0,VALID,91.1511,VALID,0,VALID,22.7647,VALID,183,VALID,0,
2010-11-23, 02:08:04,VALID,997.34,VALID,0,VALID,91.1434,VALID,0,VALID,22.7647,VALID,183,VALID,0,
2010-11-23, 02:09:04,VALID,997.325,VALID,0,VALID,91.2274,VALID,0,VALID,22.7452,VALID,183,VALID,0,
2010-11-23, 02:10:04,VALID,997.344,VALID,0,VALID,91.2808,VALID,0,VALID,22.7452,VALID,183,VALID,0,
2010-11-23, 02:11:04,VALID,997.287,VALID,0,VALID,91.296,VALID,0,VALID,22.7257,VALID,183,VALID,0,
2010-11-23, 02:12:04,VALID,997.306,VALID,0,VALID,91.3723,VALID,0,VALID,22.7452,VALID,183,VALID,0,
2010-11-23, 02:13:04,VALID,997.304,VALID,0,VALID,91.4791,VALID,0,VALID,22.7257,VALID,183,VALID,0,
2010-11-23, 02:14:04,VALID,997.321,VALID,0,VALID,91.586,VALID,0,VALID,22.7469,VALID,183,VALID,0,
2010-11-23, 02:15:04,VALID,997.311,VALID,0,VALID,91.6928,VALID,0,VALID,22.7257,VALID,183,VALID,0,
2010-11-23, 02:16:04,VALID,997.325,VALID,0,VALID,91.792,VALID,0,VALID,22.7257,VALID,183,VALID,0,
2010-11-23, 02:17:04,VALID,997.295,VALID,0,VALID,91.8911,VALID,0,VALID,22.7257,VALID,183,VALID,0,
2010-11-23, 02:18:04,VALID,997.296,VALID,0,VALID,91.9903,VALID,0,VALID,22.7062,VALID,183,VALID,0,
2010-11-23, 02:19:04,VALID,997.294,VALID,0,VALID,92.0437,VALID,0,VALID,22.7062,VALID,183,VALID,0,
2010-11-23, 02:20:04,VALID,997.253,VALID,0,VALID,92.0971,VALID,0,VALID,22.6672,VALID,183,VALID,0,
2010-11-23, 02:21:04,VALID,997.286,VALID,0,VALID,92.1734,VALID,0,VALID,22.6867,VALID,183,VALID,0,
2010-11-23, 02:22:04,VALID,997.292,VALID,0,VALID,92.2421,VALID,0,VALID,22.7079,VALID,183,VALID,0,
2010-11-23, 02:23:04,VALID,997.276,VALID,0,VALID,92.265,VALID,0,VALID,22.7062,VALID,183,VALID,0,
2010-11-23, 02:24:04,VALID,997.256,VALID,0,VALID,92.3184,VALID,0,VALID,22.7062,VALID,183,VALID,0,
2010-11-23, 02:25:04,VALID,997.274,VALID,0,VALID,92.3718,VALID,0,VALID,22.7469,VALID,183,VALID,0,
2010-11-23, 02:26:04,VALID,997.243,VALID,0,VALID,92.3947,VALID,0,VALID,22.7452,VALID,223,VALID,0,
2010-11-23, 02:27:04,VALID,997.264,VALID,0,VALID,92.4481,VALID,0,VALID,22.7664,VALID,319,VALID,0,
2010-11-23, 02:28:04,VALID,997.245,VALID,0,VALID,92.4939,VALID,0,VALID,22.7664,VALID,320,VALID,0,
2010-11-23, 02:29:04,VALID,997.224,VALID,0,VALID,92.5015,VALID,0,VALID,22.7452,VALID,320,VALID,0,
2010-11-23, 02:30:04,VALID,997.224,VALID,0,VALID,92.5397,VALID,0,VALID,22.7469,VALID,320,VALID,0,
2010-11-23, 02:31:04,VALID,997.203,VALID,0,VALID,92.5473,VALID,0,VALID,22.7257,VALID,320,VALID,0,
2010-11-23, 02:32:04,VALID,997.201,VALID,0,VALID,92.5626,VALID,0,VALID,22.7257,VALID,320,VALID,0,
2010-11-23, 02:33:04,VALID,997.202,VALID,0,VALID,92.5931,VALID,0,VALID,22.7062,VALID,320,VALID,0,
2010-11-23, 02:34:04,VALID,997.189,VALID,0,VALID,92.6083,VALID,0,VALID,22.7062,VALID,30,VALID,0,
2010-11-23, 02:35:04,VALID,997.21,VALID,0,VALID,92.6083,VALID,0,VALID,22.6867,VALID,30,VALID,0,
2010-11-23, 02:36:04,VALID,997.171,VALID,0,VALID,92.6388,VALID,0,VALID,22.6867,VALID,30,VALID,0,
2010-11-23, 02:37:04,VALID,997.151,VALID,0,VALID,92.6312,VALID,0,VALID,22.7062,VALID,32,VALID,0,
2010-11-23, 02:38:04,VALID,997.164,VALID,0,VALID,92.6465,VALID,0,VALID,22.7257,VALID,35,VALID,0,
2010-11-23, 02:39:04,VALID,997.13,VALID,0,VALID,92.6617,VALID,0,VALID,22.7062,VALID,35,VALID,0,
2010-11-23, 02:40:04,VALID,997.102,VALID,0,VALID,92.6617,VALID,0,VALID,22.7062,VALID,35,VALID,0,
2010-11-23, 02:41:04,VALID,997.114,VALID,0,VALID,92.6312,VALID,0,VALID,22.7257,VALID,35,VALID,0,
2010-11-23, 02:42:04,VALID,997.108,VALID,0,VALID,92.6388,VALID,0,VALID,22.7257,VALID,35,VALID,0,
2010-11-23, 02:43:04,VALID,997.102,VALID,0,VALID,92.6541,VALID,0,VALID,22.6867,VALID,35,VALID,0,
2010-11-23, 02:44:04,VALID,997.108,VALID,0,VALID,92.6388,VALID,0,VALID,22.7062,VALID,35,VALID,0,
2010-11-23, 02:45:04,VALID,997.079,VALID,0,VALID,92.6465,VALID,0,VALID,22.6867,VALID,29,VALID,0,
2010-11-23, 02:46:04,VALID,997.122,VALID,0,VALID,92.6388,VALID,0,VALID,22.6867,VALID,26,VALID,0,
2010-11-23, 02:47:04,VALID,997.098,VALID,0,VALID,92.6465,VALID,0,VALID,22.6672,VALID,26,VALID,0,
2010-11-23, 02:48:04,VALID,997.099,VALID,0,VALID,92.6388,VALID,0,VALID,22.6672,VALID,26,VALID,0,
2010-11-23, 02:49:04,VALID,997.107,VALID,0,VALID,92.6388,VALID,0,VALID,22.6477,VALID,26,VALID,0,
2010-11-23, 02:50:04,VALID,997.064,VALID,0,VALID,92.6388,VALID,0,VALID,22.6477,VALID,26,VALID,0,
2010-11-23, 02:51:04,VALID,997.099,VALID,0,VALID,92.6465,VALID,0,VALID,22.6477,VALID,23,VALID,1.08398,
2010-11-23, 02:52:04,VALID,997.124,VALID,0,VALID,92.6694,VALID,0,VALID,22.6477,VALID,23,VALID,0.907422,
2010-11-23, 02:53:04,VALID,997.093,VALID,0,VALID,92.6617,VALID,0,VALID,22.6282,VALID,17,VALID,1.0582,
2010-11-23, 02:54:04,VALID,997.106,VALID,0,VALID,92.6694,VALID,0,VALID,22.6282,VALID,12,VALID,0.828125,
2010-11-23, 02:55:04,VALID,997.106,VALID,0,VALID,92.6694,VALID,0,VALID,22.6087,VALID,9,VALID,1.09023,
2010-11-23, 02:56:04,VALID,997.106,VALID,0,VALID,92.6923,VALID,0,VALID,22.6087,VALID,9,VALID,0.88125,
2010-11-23, 02:57:04,VALID,997.105,VALID,0,VALID,92.6694,VALID,0,VALID,22.5892,VALID,9,VALID,0.602344,
2010-11-23, 02:58:04,VALID,997.134,VALID,0,VALID,92.6923,VALID,0,VALID,22.5909,VALID,9,VALID,0.358984,
2010-11-23, 02:59:04,VALID,997.121,VALID,0,VALID,92.6999,VALID,0,VALID,22.5696,VALID,9,VALID,0.547266,
2010-11-23, 03:00:04,VALID,997.133,VALID,0,VALID,92.7075,VALID,0,VALID,22.5696,VALID,9,VALID,0.254687,
2010-11-23, 03:01:04,VALID,997.164,VALID,0,VALID,92.7151,VALID,0,VALID,22.5909,VALID,9,VALID,0.341406,
2010-11-23, 03:02:04,VALID,997.177,VALID,0,VALID,92.7228,VALID,0,VALID,22.5696,VALID,9,VALID,0.515625,
2010-11-23, 03:03:04,VALID,997.186,VALID,0,VALID,92.7228,VALID,0,VALID,22.5909,VALID,9,VALID,0.473828,
2010-11-23, 03:04:04,VALID,997.2,VALID,0,VALID,92.7228,VALID,0,VALID,22.5892,VALID,9,VALID,0.0121094,
2010-11-23, 03:05:04,VALID,997.192,VALID,0,VALID,92.7228,VALID,0,VALID,22.5696,VALID,9,VALID,0,
2010-11-23, 03:06:04,VALID,997.198,VALID,0,VALID,92.7609,VALID,0,VALID,22.5892,VALID,9,VALID,0,
2010-11-23, 03:07:04,VALID,997.195,VALID,0,VALID,92.7609,VALID,0,VALID,22.5892,VALID,9,VALID,0,
2010-11-23, 03:08:04,VALID,997.201,VALID,0,VALID,92.7762,VALID,0,VALID,22.6087,VALID,9,VALID,0,
2010-11-23, 03:09:04,VALID,997.208,VALID,0,VALID,92.7838,VALID,0,VALID,22.6282,VALID,9,VALID,0.182422,
2010-11-23, 03:10:04,VALID,997.26,VALID,0,VALID,92.7991,VALID,0,VALID,22.6282,VALID,69,VALID,0.714453,
2010-11-23, 03:11:04,VALID,997.254,VALID,0,VALID,92.7991,VALID,0,VALID,22.6282,VALID,146,VALID,1.05039,
2010-11-23, 03:12:04,VALID,997.267,VALID,0,VALID,92.7991,VALID,0,VALID,22.6672,VALID,153,VALID,0.954297,
2010-11-23, 03:13:04,VALID,997.311,VALID,0,VALID,92.7914,VALID,0,VALID,22.7079,VALID,171,VALID,1.14688,
2010-11-23, 03:14:04,VALID,997.329,VALID,0,VALID,92.8067,VALID,0,VALID,22.7257,VALID,171,VALID,0.893359,
2010-11-23, 03:15:04,VALID,997.355,VALID,0,VALID,92.7991,VALID,0,VALID,22.7452,VALID,171,VALID,0.951953,
2010-11-23, 03:16:04,VALID,997.354,VALID,0,VALID,92.8067,VALID,0,VALID,22.7842,VALID,171,VALID,0.889844,
2010-11-23, 03:17:04,VALID,997.378,VALID,0,VALID,92.7838,VALID,0,VALID,22.8037,VALID,172,VALID,0.95,
2010-11-23, 03:18:04,VALID,997.376,VALID,0,VALID,92.7533,VALID,0,VALID,22.8037,VALID,171,VALID,1.11445,
2010-11-23, 03:19:04,VALID,997.362,VALID,0,VALID,92.7228,VALID,0,VALID,22.8427,VALID,171,VALID,1.08633,
2010-11-23, 03:20:04,VALID,997.399,VALID,0,VALID,92.6388,VALID,0,VALID,22.8623,VALID,174,VALID,1.23477,
2010-11-23, 03:21:04,VALID,997.367,VALID,0,VALID,92.5854,VALID,0,VALID,22.8818,VALID,173,VALID,1.15664,
2010-11-23, 03:22:04,VALID,997.404,VALID,0,VALID,92.5244,VALID,0,VALID,22.9403,VALID,177,VALID,1.25625,
2010-11-23, 03:23:04,VALID,997.416,VALID,0,VALID,92.4786,VALID,0,VALID,22.9793,VALID,177,VALID,1.49922,
2010-11-23, 03:24:04,VALID,997.44,VALID,0,VALID,92.4252,VALID,0,VALID,22.9988,VALID,177,VALID,1.45234,
2010-11-23, 03:25:04,VALID,997.436,VALID,0,VALID,92.3871,VALID,0,VALID,23.0183,VALID,174,VALID,1.03125,
2010-11-23, 03:26:04,VALID,997.45,VALID,0,VALID,92.3337,VALID,0,VALID,23.0183,VALID,175,VALID,0.979688,
2010-11-23, 03:27:04,VALID,997.439,VALID,0,VALID,92.2497,VALID,0,VALID,23.0183,VALID,172,VALID,0.807031,
2010-11-23, 03:28:04,VALID,997.455,VALID,0,VALID,92.1353,VALID,0,VALID,23.0183,VALID,169,VALID,0.929688,
2010-11-23, 03:29:04,VALID,997.458,VALID,0,VALID,92.0056,VALID,0,VALID,23.0378,VALID,170,VALID,0.794531,
2010-11-23, 03:30:04,VALID,997.448,VALID,0,VALID,91.8988,VALID,0,VALID,23.0378,VALID,169,VALID,0.520312,
2010-11-23, 03:31:04,VALID,997.454,VALID,0,VALID,91.8225,VALID,0,VALID,22.9971,VALID,170,VALID,0.488672,
2010-11-23, 03:32:04,VALID,997.469,VALID,0,VALID,91.7691,VALID,0,VALID,23.0183,VALID,169,VALID,0.339844,
2010-11-23, 03:33:04,VALID,997.461,VALID,0,VALID,91.6928,VALID,0,VALID,23.0183,VALID,169,VALID,0.291797,
2010-11-23, 03:34:04,VALID,997.477,VALID,0,VALID,91.7004,VALID,0,VALID,23.0183,VALID,170,VALID,0.128516,
2010-11-23, 03:35:04,VALID,997.451,VALID,0,VALID,91.7004,VALID,0,VALID,22.9988,VALID,169,VALID,0.354297,
2010-11-23, 03:36:04,VALID,997.469,VALID,0,VALID,91.7233,VALID,0,VALID,22.9988,VALID,169,VALID,0.504687,
2010-11-23, 03:37:04,VALID,997.442,VALID,0,VALID,91.708,VALID,0,VALID,22.9988,VALID,169,VALID,0.590625,
2010-11-23, 03:38:04,VALID,997.448,VALID,0,VALID,91.6928,VALID,0,VALID,22.9988,VALID,169,VALID,0.527734,
2010-11-23, 03:39:04,VALID,997.452,VALID,0,VALID,91.6928,VALID,0,VALID,22.9793,VALID,169,VALID,0.503906,
2010-11-23, 03:40:04,VALID,997.467,VALID,0,VALID,91.7157,VALID,0,VALID,22.9793,VALID,169,VALID,0.516797,
2010-11-23, 03:41:04,VALID,997.459,VALID,0,VALID,91.7157,VALID,0,VALID,22.9598,VALID,169,VALID,0,
2010-11-23, 03:42:04,VALID,997.495,VALID,0,VALID,91.7309,VALID,0,VALID,22.9615,VALID,169,VALID,0,
2010-11-23, 03:43:04,VALID,997.507,VALID,0,VALID,91.7614,VALID,0,VALID,22.9403,VALID,169,VALID,0,
2010-11-23, 03:44:04,VALID,997.498,VALID,0,VALID,91.792,VALID,0,VALID,22.9013,VALID,169,VALID,0,
2010-11-23, 03:45:04,VALID,997.525,VALID,0,VALID,91.853,VALID,0,VALID,22.9208,VALID,169,VALID,0,
2010-11-23, 03:46:04,VALID,997.514,VALID,0,VALID,91.9369,VALID,0,VALID,22.9013,VALID,169,VALID,0,
2010-11-23, 03:47:04,VALID,997.504,VALID,0,VALID,92.0056,VALID,0,VALID,22.9013,VALID,162,VALID,0,
2010-11-23, 03:48:04,VALID,997.517,VALID,0,VALID,92.0743,VALID,0,VALID,22.9013,VALID,22,VALID,0,
2010-11-23, 03:49:04,VALID,997.503,VALID,0,VALID,92.12,VALID,0,VALID,22.9013,VALID,22,VALID,0.933984,
2010-11-23, 03:50:04,VALID,997.479,VALID,0,VALID,92.1811,VALID,0,VALID,22.8818,VALID,22,VALID,0.959766,
2010-11-23, 03:51:04,VALID,997.458,VALID,0,VALID,92.1734,VALID,0,VALID,22.8818,VALID,22,VALID,1.06367,
2010-11-23, 03:52:04,VALID,997.457,VALID,0,VALID,92.1963,VALID,0,VALID,22.8623,VALID,22,VALID,0.9875,